Home   Weather   Marrakech   Past weeks

Flag for Morocco Past Weather in Marrakech, Morocco — Yesterday and Last 2 Weeks

70 °F

Passing clouds.

Feels Like: 70 °F
Forecast: 61 / 78 °F
Wind: 9 mph from East

Location: Marrakech Airport

Current Time: Oct 23, 2016 at 10:51:06 AM

Latest Report: Oct 23, 2016 at 10:30 AM

Visibility: N/A

Pressure: 29.89 "Hg

Humidity: 50%

Dew Point: 50 °F

Location of MarrakechLocation

Past Weather in Marrakech — Graph


Marrakech Temperature Yesterday

Maximum temperature yesterday: 81 °F (at 5:30 PM)
Minimum temperature yesterday: 61 °F (at 7:30 AM)
Average temperature yesterday: 70 °F

High & Low Weather Summary for the Past Weeks

High90 °F (Oct 19, 4:00 PM)88% (Oct 9, 6:30 AM)30.18 "Hg (Oct 9, 6:30 AM)
Low57 °F (Oct 12, 5:30 AM)15% (Oct 17, 2:30 PM)29.80 "Hg (Oct 13, 4:00 AM)
Average71 °F48%29.99 "Hg
* Reported Oct 8 10:00 AM — Oct 23 10:00 AM, Marrakech, Weather by CustomWeather, © 2016

Note: Actual official high and low records may vary slightly from our data, if they occured in-between our weather recording intervals... More about our weather records


Marrakech Weather History for the Previous 24 Hours

Scroll right to see more
Time TempWeatherWind HumidityBarometerVisibility
10:00 AM
Sun, Oct 23
68 °FSunny.10 mph53%29.89 "Hg10 mi
9:30 AM66 °FSunny.7 mph56%29.89 "Hg10 mi
9:00 AM64 °FSunny.No wind64%29.89 "Hg10 mi
8:30 AM61 °FSunny.2 mph68%29.89 "Hg10 mi
8:00 AM61 °FSunny.3 mph68%29.89 "Hg10 mi
7:30 AM63 °FPartly sunny.3 mph68%29.89 "HgN/A
7:00 AM61 °FSunny.2 mph68%29.89 "Hg10 mi
6:30 AM63 °FClear.2 mph68%29.89 "Hg10 mi
6:00 AM63 °FClear.5 mph68%29.89 "Hg10 mi
5:30 AM63 °FClear.3 mph68%29.89 "Hg10 mi
5:00 AM63 °FClear.2 mph68%29.89 "Hg6 mi
4:30 AM63 °FClear.2 mph68%29.92 "Hg10 mi
3:30 AM64 °FPassing clouds.3 mph68%29.92 "HgN/A
3:00 AM64 °FPassing clouds.3 mph68%29.92 "HgN/A
2:30 AM63 °FClear.No wind68%29.95 "Hg10 mi
2:00 AM64 °FClear.3 mph64%29.95 "Hg10 mi
1:30 AM64 °FClear.3 mph64%29.95 "Hg10 mi
1:00 AM66 °FClear.3 mph60%29.95 "Hg5 mi
12:30 AM66 °FClear.5 mph60%29.95 "Hg5 mi
12:00 AM68 °FPassing clouds.3 mph56%29.95 "HgN/A
11:30 PM
Sat, Oct 22
68 °FPassing clouds.3 mph53%29.95 "HgN/A
11:00 PM68 °FPassing clouds.5 mph53%29.95 "HgN/A
10:30 PM68 °FPassing clouds.3 mph49%29.95 "HgN/A
10:00 PM70 °FClear.3 mph46%29.95 "Hg10 mi
9:30 PM70 °FClear.7 mph46%29.95 "Hg10 mi
9:00 PM70 °FClear.6 mph46%29.95 "Hg10 mi
8:30 PM72 °FPassing clouds.7 mph44%29.95 "HgN/A
8:00 PM72 °FPassing clouds.7 mph44%29.95 "HgN/A
7:30 PM73 °FPassing clouds.10 mph38%29.92 "HgN/A
7:00 PM75 °FClear.12 mph36%29.92 "Hg5 mi
6:30 PM77 °FClear.14 mph32%29.92 "Hg4 mi
6:00 PM79 °FClear.16 mph28%29.89 "Hg4 mi
5:30 PM81 °FClear.15 mph23%29.89 "Hg4 mi
3:00 PM79 °FPassing clouds.12 mph28%29.89 "HgN/A
2:30 PM79 °FSunny.12 mph28%29.89 "Hg10 mi
2:00 PM79 °FPassing clouds.13 mph26%29.92 "HgN/A
1:30 PM79 °FPassing clouds.15 mph26%29.92 "HgN/A
1:00 PM79 °FPassing clouds.8 mph26%29.92 "HgN/A
12:30 PM77 °FPassing clouds.7 mph30%29.92 "HgN/A
12:00 PM77 °FScattered clouds.6 mph30%29.92 "HgN/A
11:30 AM75 °FScattered clouds.3 mph31%29.92 "HgN/A
11:00 AM75 °FScattered clouds.1 mph31%29.95 "HgN/A
10:30 AM72 °FScattered clouds.3 mph36%29.95 "HgN/A
10:00 AM70 °FScattered clouds.2 mph38%29.95 "HgN/A
Weather by CustomWeather, © 2016

See weather overviewHow to use our weather pages